AISSAT 1

导读

AISSAT 1(自动识别卫星1号)是一款面向海事监测的微型技术试验卫星,于2010年7月12日发射进入近地太阳同步轨道。它搭载实验性船舶自动识别系统传感器,专门用于对全球海上船舶航行数据进行天基采集监测,可辅助海事管理、海域态势感知。作为早期星载AIS技术验证项目,它为后续天基船舶监测系统发展积累了关键技术经验,目前在轨运行开展相关遥感监测任务。

基本信息
目录编号:
36797
目录名称:
AISSAT 1
国际标识:
2010-035C
轨道中心:
EARTH
卫星名称:
AISSAT 1
卫星全名:
--
卫星状态:
在轨 (已飞行5898 天)
发射日期:
2010-07-12 UTC
国别 :
挪威 (NO)
星等 :
--
轨道信息
数据来源 国际轨道数据
星历时间: 2026-09-03T23:43:42+0800
19小时前
查看轨道信息
半长轴: 6952.352km
偏心率: 0.0009257
轨道倾角: 98.081°
近地点辐角 150.802°
升交点赤经 148.639°
平近点角 209.372°
近地点: 567.779km
远地点: 580.651km
周期: 96.152分钟
每日圈数: 14.976321
详细信息
使用方式:
暂无
2D轨道图
3D轨道图
轨道高度分析图
轨道倾角分析图
轨道综合分析图
查看轨道综合分析图